Flag for Equatorial Guinea Weather past 2 weeks in Bata, Equatorial Guinea

77 °F

Thunderstorms. Passing clouds.

Feels Like: 78 °F
Forecast: 78 / 85 °F
Wind: 5 mph from East

Location: Libreville Airport

Current Time: Dec 1, 2015 at 6:59:25 AM

Latest Report: Dec 1, 2015 at 5:00 AM

Visibility: N/A

Pressure: 29.92 "Hg

Humidity: 94%

Dew point: 75 °F

Location of BataLocation

Historic Weather in Bata — Graph


Bata temperature yesterday

Maximum temperature yesterday: 86 °F (at 1:00 PM)
Minimum temperature yesterday: 81 °F (at 12:00 AM)
Average temperature yesterday: 82 °F

Past Weeks' High & Low Weather Summary

High86 °F (Nov 16, 11:00 AM)100% (Nov 16, 5:00 AM)29.98 "Hg (Nov 16, 5:00 AM)
Low72 °F (Nov 23, 6:00 PM)66% (Nov 25, 12:00 PM)29.71 "Hg (Nov 22, 3:00 PM)
Average80 °F86%29.85 "Hg
* Reported Nov 16 5:00 AM — Dec 1 5:00 AM, Bata, Weather by CustomWeather, © 2015

Note: Actual official high and low records may vary slightly from our data, if they occured in-between our weather recording intervals... More about our weather records


Bata weather history for previous 24 hours

Time TempWeatherWind HumidityBarometerVisibility
5:00 AM
Tue, Dec 1
77 °FThunderstorms. Passing clouds.5 mph94%29.92 "HgN/A
4:00 AM79 °FThunderstorms. Passing clouds.7 mph89%29.92 "HgN/A
3:00 AM79 °FPassing clouds.10 mph89%29.92 "HgN/A
2:00 AM79 °FPassing clouds.10 mph94%29.92 "HgN/A
1:00 AM79 °FPassing clouds.10 mph94%29.92 "HgN/A
12:00 AM81 °FPassing clouds.6 mph89%29.95 "HgN/A
11:00 PM
Mon, Nov 30
81 °FPassing clouds.6 mph89%29.95 "HgN/A
10:00 PM81 °FPassing clouds.5 mph89%29.95 "HgN/A
9:00 PM81 °FPassing clouds.6 mph89%29.95 "HgN/A
8:00 PM82 °FPassing clouds.8 mph84%29.92 "Hg6 mi
7:00 PM81 °FLight rain. Passing clouds.7 mph89%29.89 "Hg5 mi
6:00 PM82 °FPassing clouds.7 mph84%29.89 "Hg6 mi
5:00 PM82 °FScattered clouds.7 mph84%29.86 "Hg6 mi
4:00 PM81 °FThunderstorms. Scattered clouds.6 mph94%29.86 "Hg5 mi
3:00 PM82 °FBroken clouds.7 mph84%29.86 "Hg5 mi
2:00 PM84 °FBroken clouds.8 mph79%29.89 "HgN/A
1:00 PM86 °FScattered clouds.8 mph75%29.92 "HgN/A
12:00 PM84 °FBroken clouds.3 mph79%29.95 "HgN/A
11:00 AM84 °FScattered clouds.6 mph79%29.95 "Hg6 mi
10:00 AM82 °FBroken clouds.7 mph84%29.98 "Hg5 mi
9:00 AM81 °FScattered clouds.8 mph89%29.98 "Hg5 mi
8:00 AM81 °FBroken clouds.7 mph89%29.95 "Hg5 mi
7:00 AM81 °FBroken clouds.7 mph89%29.92 "HgN/A
6:00 AM81 °FPassing clouds.8 mph84%29.92 "HgN/A
Weather by CustomWeather, © 2015

See weather overviewHow to use our weather pages